#timestamp,LO_Frequency,Hit,StdDev 
1599541215.8,286046999.6,N
1599541235.7,286046997.0,N
1599541255.5,286046996.6,N
1599541275.4,286046997.3,N
1599541295.2,286046997.3,N
1599541315.1,286046996.7,N
1599541335.8,286046997.1,N
1599541355.7,286046996.7,N
1599541375.5,286046999.5,N
1599541395.4,286047000.8,N
1599541415.2,286047001.1,N
1599541435.0,286046998.5,N
1599541435.9,286046998.5,N
1599541455.8,286046998.3,N
1599541475.6,286046996.5,N
1599541495.5,286046998.7,N
1599541515.3,286046999.3,N
1599541535.1,286046998.9,N
1599541555.9,286046997.0,N
1599541575.7,286046996.6,N
1599541595.6,286047000.5,N
1599541615.4,286046998.1,N
1599541635.2,286046996.8,N
1599541655.1,286046998.8,N
1599541656.0,286046998.8,N
1599541675.8,286046999.2,N
1599541695.6,286046997.3,N
1599541715.5,286046998.4,N
1599541735.3,286046996.6,N
1599541755.2,286046996.8,N
1599541775.9,286046996.7,N
1599541795.7,286046997.4,N
1599541815.6,286046999.2,N
1599541835.4,286046997.7,N
1599541855.3,286046996.6,N
1599541875.1,286046997.4,N
1599541876.0,286046997.4,N
1599541895.8,286046997.0,N
1599541915.7,286046999.0,N
1599541935.5,286046999.2,N
1599541955.3,286046997.8,N
1599541975.2,286046997.3,N
1599541995.0,286046999.5,N
1599541995.9,286046999.5,N
1599542015.8,286046996.8,N
1599542035.6,286046997.6,N
1599542055.4,286046997.6,N
1599542075.3,286046997.9,N
1599542095.1,286046997.9,N
1599542115.8,286046997.6,N
1599542135.7,286046996.7,Y
1599542155.5,286047001.1,P
1599542175.4,286046998.6,N
1599542195.2,286046998.2,N
1599542215.5,286046999.4,N
1599542235.4,286046996.6,Y
1599542255.2,286047001.0,P
1599542275.0,286046999.8,N
1599542275.9,286046999.8,N
1599542295.8,286046998.6,N
1599542315.6,286046998.6,N
1599542335.5,286047000.9,N
1599542355.3,286047000.2,N
1599542375.1,286047000.1,N
1599542395.9,286046999.9,N
1599542415.7,286047000.0,N
1599542435.6,286046999.7,N
1599542455.4,286047000.2,N
1599542475.2,286046999.9,N
1599542495.1,286046999.7,N
1599542496.0,286046999.7,N
1599542515.8,286047000.0,N
1599542535.7,286047000.2,N
1599542555.5,286047000.1,N
1599542575.3,286047004.4,Y
1599542595.2,286047003.1,P
1599542615.0,286047004.0,N
1599542615.9,286047004.0,N
1599542635.7,286047001.7,N
1599542655.6,286047002.2,N
1599542675.4,286047002.4,N
1599542695.3,286047002.8,N
1599542715.1,286047002.0,N
1599542716.0,286047002.0,N
1599542735.8,286047003.8,Y
1599542755.7,286046999.7,P
1599542775.5,286046998.4,N
1599542795.4,286046998.8,N
1599542815.2,286046998.4,N
1599542835.0,286046999.6,N
1599542835.9,286046999.6,N
1599542855.8,286046998.8,N
1599542875.6,286046998.2,N
1599542895.4,286046998.4,N
1599542915.3,286046998.2,N
1599542935.1,286047000.0,N
1599542955.9,286047001.3,N
1599542975.7,286047000.0,N
1599542995.5,286047000.6,N
1599543015.4,286047002.3,N
1599543035.2,286046999.0,N
1599543055.0,286046998.5,N
1599543055.9,286046998.5,N
1599543075.8,286047000.6,N
1599543095.6,286047000.7,N
1599543115.5,286046998.1,N
1599543135.3,286047000.9,N
1599543185.2,286047001.0,E
1599543195.1,286046998.1,N
1599543196.0,286046998.1,P
1599543215.8,286046996.6,P
1599543235.7,286046996.5,Y
1599543255.5,286047000.6,P
1599543275.3,286047002.3,N
1599543295.2,286047002.2,N
1599543315.0,286047001.9,N
1599543315.9,286047001.9,N
1599543335.8,286047001.6,N
1599543355.6,286047003.8,N
1599543375.4,286047003.3,N
1599543395.3,286047003.8,N
1599543415.1,286047001.7,N
1599543435.8,286047002.6,N
1599543455.7,286047000.2,N
1599543475.5,286047002.2,N
1599543495.3,286047001.4,N
1599543515.2,286047004.1,N
1599543535.0,286046999.8,N
1599543535.9,286046999.8,N
1599543555.8,286047000.2,N
1599543575.6,286047002.6,N
1599543595.4,286047002.4,N
1599543615.3,286047002.4,N
1599543635.1,286047000.0,N
1599543655.8,286046999.7,N
1599543675.7,286047001.3,N
1599543695.5,286047001.8,N
1599543715.4,286047004.0,N
1599543735.2,286047001.7,N
1599543755.0,286047004.3,N
1599543755.9,286047004.3,N
1599543775.8,286047001.8,N
1599543795.6,286047001.8,N
1599543815.5,286047003.2,N
1599543835.3,286047001.6,N
1599543855.1,286047001.9,N
1599543875.9,286047001.3,N
1599543895.7,286047002.4,N
1599543915.6,286046999.8,N
1599543935.4,286047002.1,N
1599543955.2,286047001.5,N
1599543975.1,286047003.7,N
1599543976.0,286047003.7,N
1599543995.8,286047003.7,N
1599544015.7,286047001.4,N
1599544035.5,286047001.3,N
1599544055.3,286047003.8,N
1599544075.2,286047005.5,Y
1599544095.0,286047002.3,P
1599544095.9,286047002.3,P
1599544115.7,286047000.5,P
1599544135.6,286047000.4,N
1599544155.4,286047001.7,N
1599544175.3,286047001.9,N
1599544195.1,286047002.7,Y
1599544215.8,286046999.7,P
1599544235.7,286047000.7,N
1599544255.5,286046998.3,N
1599544275.4,286047000.7,N
1599544295.2,286047001.2,N
1599544315.0,286046998.9,N
1599544315.9,286046998.9,N
1599544335.8,286047001.0,N
1599544355.6,286046999.4,N
1599544375.4,286046998.9,N
1599544395.3,286047000.7,N
1599544415.1,286046998.1,N
1599544435.9,286046998.7,N
1599544455.7,286046998.8,N
1599544475.5,286047001.2,N
1599544495.4,286047000.5,N
1599544515.2,286047001.1,N
1599544535.0,286047001.2,N
1599544535.9,286047001.2,N
1599544555.8,286047000.0,N
1599544575.6,286047000.5,N
1599544595.5,286047001.1,N
1599544615.3,286046998.3,N
1599544635.1,286046998.2,N
1599544655.9,286046998.1,N
1599544675.7,286046998.4,N
1599544695.5,286047001.0,N
1599544715.4,286047000.4,N
1599544735.2,286046998.7,N
1599544755.0,286047000.4,N
1599544756.0,286047000.4,N
1599544775.8,286047000.6,N
1599544795.6,286046998.6,N
